Regional Weather Roundup
Issued by NWS

Home | Current Version | Previous Version | Graphics & Text | Print | Product List | Glossary On
Versions: 1 2 3 4 5 6 7 8 9 10 11 12 13 14 15 16 17 18 19 20 21 22 23 24 25 26 27 28 29 30 31 32 33 34 35 36 37 38 39 40 41 42 43 44 45 46 47 48 49 50
000
ASUS45 KTFX 050704
RWRMT
MONTANA HOURLY WEATHER ROUNDUP
NATIONAL WEATHER SERVICE GREAT FALLS MT
1204 AM MST THU MAR 5 2015

NOTE: "FAIR" INDICATES FEW OR NO CLOUDS BELOW 12000 FEET WITH NO
SIGNIFICANT WEATHER AND/OR OBSTRUCTIONS TO VISIBILITY.

* THESE STATIONS ARE NOT UNDER NWS QUALITY CONTROL. THEY DO NOT
   REPORT WEATHER SUCH AS PRECIPITATION OR FOG.

MTZ001>007-043-050800-
WEST OF THE DIVIDE
CITY           SKY/WX    TMP DP  RH WIND       PRES   REMARKS
KALISPELL      MOCLDY    21  18  88 CALM      30.23R
MISSOULA       CLEAR     25  14  63 W7        30.27R WCI  17
BUTTE          CLOUDY    25   9  50 NE3       30.15S
MULLAN PASS    PTCLDY    21   1  41 SW8       30.16S WCI  11
* ANACONDA     MOCLDY    32   9  38 W7         N/A   WCI  25
* ESSEX        N/A       16   9  74 S1         N/A
* LINCOLN      N/A       28   9  45 S7G14      N/A   WCI  21
* LOOKOUT PASS N/A       22  10  60 NE1        N/A
* POLSON       N/A       26  11  53 S1         N/A
* RONAN APT    PTCLDY    28  19  69 N/A        N/A
* SEELEY LAKE  N/A       13   5  70 NE1        N/A
* THOMP F APT  PTCLDY    15   5  64 NE2        N/A
$$

MTZ008-052>055-050800-
SOUTHWEST MONTANA
CITY           SKY/WX    TMP DP  RH WIND       PRES   REMARKS
BOZEMAN        PTCLDY    18  10  71 S5        30.15S WCI  11
DILLON         MOCLDY    30   9  41 SW12      30.16R WCI  20
* W YELLOWSTON PTCLDY     9  -1  63 SW1        N/A
* THREE FORKS  MOCLDY    19   9  65 N/A        N/A
* BOULDER HILL N/A       27   3  35 S3         N/A
* MONIDA PASS  N/A       14   6  70 SE16       N/A   WCI  -2
* RAYNOLDS PAS N/A        7  -6  55 S5         N/A   WCI  -2
* WHITEHALL    N/A       32   6  33 W8         N/A   WCI  25
* WISE RIVER   N/A       30   6  36 W10G20     N/A   WCI  21
$$

MTZ009>010-012-014-046-048-049-054-050800-
EAST SLOPES AND CENTRAL MONTANA
CITY           SKY/WX    TMP DP  RH WIND       PRES   REMARKS
CUT BANK       CLEAR     28  10  47 W23G33    29.99R WCI  14
GREAT FALLS    CLEAR     27  14  58 SW12      30.04R WCI  16
HELENA         PTCLDY    36  10  34 W13G25    30.13R WCI  27
* DEARBORN     N/A       35  12  38 S8         N/A   WCI  28
* EAST GLACIER N/A       28   6  39 W22G30     N/A   WCI  14
* MONARCH      N/A       24   4  42 SW12       N/A   WCI  13
* PENDROY      N/A       28  12  51 W16        N/A   WCI  16
* ROGERS PASS  N/A       24   8  50 E12G30     N/A   WCI  13
* SWEET GRASS  N/A       27  12  53 W20G26     N/A   WCI  13
$$

MTZ011-013-016-021-035-040-045-047-050-051-050800-
NORTH CENTRAL MONTANA
CITY           SKY/WX    TMP DP  RH WIND       PRES   REMARKS
HAVRE          PTCLDY    27  14  58 SW13      29.99F WCI  16
LEWISTOWN      CLEAR     19   7  59 W10       30.02R WCI   8
* N BAR RANCH  CLEAR      9   0  66 CALM      30.02R
* CHESTER      N/A       25  11  55 W4         N/A
* DENTON       N/A       25  12  58 W5         N/A   WCI  19
* GEYSER       N/A       29  10  45 SW24       N/A   WCI  15
* JUDITH GAP   N/A       18   4  54 SE3        N/A
* LOMA         N/A       25  14  63 SW8        N/A   WCI  16
$$

MTZ017>020-022>027-061-062-050800-
NORTHEAST MONTANA
CITY           SKY/WX    TMP DP  RH WIND       PRES   REMARKS
GLASGOW        CLEAR      9  -2  61 E15       30.06F WCI  -8
GLENDIVE       CLEAR      7  -4  60 S10       30.13F WCI  -7
JORDAN         CLEAR     18   5  57 SW7       30.06F WCI   9
SIDNEY         PTCLDY     1   1 100 CALM      30.20F
WOLF POINT     CLEAR      5  -2  72 NE7       30.13F WCI  -7
* BEAVER HILL  N/A       10  -2  58 S15        N/A   WCI  -7
* CIRCLE       N/A       14   1  56 N/A        N/A
* LINDSAY DVD  N/A        3  -5  69 SE3        N/A
* NAVAJO       N/A        7  -6  55 SW13G18    N/A   WCI  -9
* SACO         N/A        9   1  70 NE9        N/A   WCI  -4
$$

MTZ028>042-056>058-050800-
SOUTHCENTRAL AND SOUTHEAST MONTANA
CITY           SKY/WX    TMP DP  RH WIND       PRES   REMARKS
BAKER          CLEAR      5  -2  72 S3        30.13F
BILLINGS       CLEAR     21   3  45 SW24      30.06S WCI   4
LIVINGSTON     PTCLDY    30   9  41 W21G28    30.08R WCI  17
MILES CITY     CLEAR      9   0  66 SE9       30.12F WCI  -4
* LAUREL APT   CLEAR     21   0  40 SW14G20    N/A   WCI   8
* ROUNDUP APT  CLEAR     19   1  45 S5         N/A   WCI  12
* ALZADA       N/A        2  -5  72 E4         N/A
* HYSHAM       N/A       20   2  45 W6         N/A   WCI  12
* REED POINT   N/A       16   6  64 SE3        N/A
$$

REGIONAL REPORTS...DAKOTAS
CITY           SKY/WX    TMP DP  RH WIND       PRES   REMARKS
WILLISTON      PTCLDY     1  -9  62 S6        30.19F WCI -11
DICKINSON      CLEAR      0  -9  65 S10       30.15F WCI -16
BEACH          CLEAR      3  -2  79 S10       30.14F WCI -12
CROSBY         CLEAR     -6 -13  71 S15       30.17F WCI -27
WATFORD CITY   CLEAR     -2  -9  72 E6        30.17F WCI -14
BISMARCK       PTCLDY    -8 -13  78 SE5       30.33F WCI -20
GRAND FORKS    CLEAR    -15 -20  77 SW6       30.39F WCI -30
FARGO          CLEAR     -8 -15  71 W9        30.43S WCI -25
BUFFALO SD     CLEAR      3  -6  66 S10       30.09F WCI -12
RAPID CITY     PTCLDY     7   0  73 S9        30.21F WCI  -6
$$

REGIONAL REPORTS...WYOMING/IDAHO/WASHINGTON
CITY           SKY/WX    TMP DP  RH WIND       PRES   REMARKS
GILLETTE       PTCLDY    16  -2  45 SW16      30.08F WCI   1
SHERIDAN       PTCLDY     0  -8  68 CALM      30.09S
CODY           PTCLDY    18   3  52 NE5G23    30.07R WCI  11
YELLOWSTONE LA PTCLDY    -6  -9  87 CALM      30.20R
SALMON         PTCLDY    19  12  74 CALM      30.28R
MULLAN PASS    PTCLDY    21   1  41 SW8       30.16S WCI  11
SAND POINT     PTCLDY    28  19  69 CALM      30.28R
SPOKANE        PTCLDY    30  16  56 S6        30.25S WCI  24

$$




USA.gov is the U.S. government's official web portal to all federal, state and local government web resources and services.